Belmar-Farmingdale, NJ

8:42 AM EST on December 08, 2019 (GMT -0500)
Allaire

Weather History for KBLM - November, 2019

Change the Weather History Date:

Wednesday, November 20, 2019

  Actual Average Record
Temperature  
Mean Temperature 42 °F -  
Max Temperature 48 °F 50 °F 69 °F (1999)
Min Temperature 37 °F 36 °F 24 °F (2000)
Degree Days  
Heating Degree Days 22    
Moisture  
Dew Point 31 °F    
Average Humidity 66    
Maximum Humidity 83    
Minimum Humidity 44    
Precipitation  
Precipitation 0.00 in - - ()
Sea Level Pressure  
Sea Level Pressure 29.99 in    
Wind  
Wind Speed 8 mph ()    
Max Wind Speed 17 mph    
Max Gust Speed 24 mph    
Visibility 10.0 miles    
Events      
Averages and records for this station are not official NWS values.
T = Trace of Precipitation, MM = Missing Value Source: Averaged Metar Reports

Daily Weather History Graph

Daily Weather History Graph

Search for Another Location

Airport or City:

Astronomy

Nov. 20, 2019 Rise Set
Actual Time 6:47 AM EST 4:36 PM EST
Civil Twilight 6:18 AM EST 5:05 PM EST
Nautical Twilight 5:44 AM EST 5:38 PM EST
Astronomical Twilight 5:12 AM EST 6:11 PM EST
Moon No Moon Rise 1:31 PM EST (11/20)
Length of Visible Light 10h 47m
Length of Day
9h 48m
Last Quarter, 41% of the Moon is Illuminated
Nov 20
Last Quarter
Nov 26
New
Dec 4
First Quarter
Dec 12
Full
Dec 18
Last Quarter

Hourly Weather History & Observations

Time (EST) Temp. Windchill Dew Point Humidity Pressure Visibility Wind Dir Wind Speed Gust Speed Precip Events Conditions
12:56 AM 39.9 °F 36.7 °F 34.0 °F 79% 29.88 in 10.0 mi West 4.6 mph - N/A   Clear
1:56 AM 39.0 °F 35.7 °F 34.0 °F 82% 29.88 in 10.0 mi NW 4.6 mph - N/A   Clear
2:56 AM 37.9 °F 33.5 °F 33.1 °F 83% 29.88 in 10.0 mi WNW 5.8 mph - N/A   Clear
3:56 AM 37.9 °F 33.5 °F 33.1 °F 83% 29.88 in 10.0 mi WNW 5.8 mph - N/A   Clear
5:56 AM 37.9 °F 32.7 °F 33.1 °F 83% 29.92 in 10.0 mi West 6.9 mph - N/A   Overcast
6:56 AM 37.9 °F 32.7 °F 32.0 °F 79% 29.93 in 10.0 mi WNW 6.9 mph - N/A   Mostly Cloudy
7:56 AM 37.9 °F 32.7 °F 32.0 °F 79% 29.95 in 10.0 mi WNW 6.9 mph - N/A   Clear
8:56 AM 39.9 °F 32.9 °F 30.9 °F 70% 29.96 in 10.0 mi NW 11.5 mph - N/A   Scattered Clouds
9:56 AM 42.1 °F 34.9 °F 30.0 °F 62% 29.96 in 10.0 mi NW 13.8 mph - N/A   Clear
10:56 AM 44.1 °F 37.4 °F 28.0 °F 53% 29.96 in 10.0 mi NW 13.8 mph - N/A   Scattered Clouds
11:56 AM 45.0 °F 37.6 °F 28.0 °F 52% 29.96 in 10.0 mi WNW 17.3 mph - N/A   Scattered Clouds
12:56 PM 46.9 °F - 28.9 °F 50% 29.96 in 10.0 mi NW 15.0 mph 21.9 mph N/A   Overcast
1:56 PM 48.0 °F - 27.0 °F 44% 29.96 in 10.0 mi NW 16.1 mph 24.2 mph N/A   Overcast
2:56 PM 48.9 °F - 28.0 °F 44% 29.96 in 10.0 mi NW 16.1 mph - N/A   Clear
3:56 PM 46.0 °F 39.3 °F 30.0 °F 54% 29.99 in 10.0 mi WNW 16.1 mph - N/A   Partly Cloudy
4:56 PM 44.1 °F 36.8 °F 30.9 °F 60% 30.02 in 10.0 mi NW 16.1 mph 23.0 mph N/A   Mostly Cloudy
5:56 PM 43.0 °F 36.4 °F 30.9 °F 62% 30.05 in 10.0 mi NW 12.7 mph 19.6 mph N/A   Overcast
6:56 PM 43.0 °F 37.2 °F 30.9 °F 62% 30.07 in 10.0 mi WNW 10.4 mph 18.4 mph N/A   Overcast
7:56 PM 43.0 °F 35.7 °F 30.0 °F 60% 30.08 in 10.0 mi NW 15.0 mph 21.9 mph N/A   Overcast
8:56 PM 42.1 °F 35.2 °F 30.0 °F 62% 30.10 in 10.0 mi NW 12.7 mph - N/A   Mostly Cloudy
9:56 PM 41.0 °F 35.8 °F 28.9 °F 62% 30.11 in 10.0 mi NW 8.1 mph - N/A   Clear
10:56 PM 39.0 °F 33.4 °F 30.0 °F 70% 30.12 in 10.0 mi WNW 8.1 mph - N/A   Clear
11:56 PM 39.0 °F 32.3 °F 30.9 °F 73% 30.12 in 10.0 mi NW 10.4 mph - N/A   Clear